| time (UTC) | temp F | wind direction | speed MPH | gust MPH | rain 1hr in | rain 24hr in | rain mn in | humidity % | barometer mb |
| 20260507050039 | 66 | 313 | 9.0 | 20.0 | 0.00 | 0.00 | 0.00 | 44 | 1012.3 |
| 20260507044528 | 67 | 292 | 13.0 | 19.0 | 0.00 | 0.00 | 0.00 | 42 | 1012.0 |
| 20260507043009 | 68 | 294 | 9.0 | 14.0 | 0.00 | 0.00 | 0.00 | 39 | 1012.3 |
| 20260507041511 | 70 | 322 | 0.0 | 6.0 | 0.00 | 0.00 | 0.00 | 36 | 1012.3 |
| 20260507040051 | 70 | 246 | 0.0 | 0.0 | 0.00 | 0.00 | 0.00 | 35 | 1012.0 |
| 20260507034549 | 71 | 249 | 0.0 | 12.0 | 0.00 | 0.00 | 0.00 | 33 | 1011.7 |
| 20260507033030 | 72 | 260 | 10.0 | 17.0 | 0.00 | 0.00 | 0.00 | 32 | 1011.6 |
| 20260507031532 | 73 | 260 | 6.0 | 17.0 | 0.00 | 0.00 | 0.00 | 32 | 1011.2 |
| 20260507030015 | 74 | 284 | 6.0 | 14.0 | 0.00 | 0.00 | 0.00 | 31 | 1011.2 |
| 20260507024511 | 74 | 262 | 0.0 | 11.0 | 0.00 | 0.00 | 0.00 | 31 | 1011.2 |
| 20260507023111 | 74 | 272 | 3.0 | 11.0 | 0.00 | 0.00 | 0.00 | 30 | 1011.1 |
| 20260507021613 | 74 | 284 | 0.0 | 11.0 | 0.00 | 0.00 | 0.00 | 30 | 1011.1 |
| 20260507020109 | 74 | 276 | 2.0 | 14.0 | 0.00 | 0.00 | 0.00 | 30 | 1011.0 |
| 20260507014541 | 75 | 284 | 6.0 | 15.0 | 0.00 | 0.00 | 0.00 | 30 | 1010.8 |
| 20260507013041 | 75 | 288 | 8.0 | 20.0 | 0.00 | 0.00 | 0.00 | 30 | 1010.7 |
| 20260507011521 | 75 | 286 | 5.0 | 12.0 | 0.00 | 0.00 | 0.00 | 30 | 1010.8 |
| 20260507010021 | 76 | 303 | 5.0 | 16.0 | 0.00 | 0.00 | 0.00 | 30 | 1010.7 |
| 20260507004556 | 76 | 283 | 2.0 | 14.0 | 0.00 | 0.00 | 0.00 | 31 | 1010.8 |
| 20260507003055 | 77 | 266 | 8.0 | 19.0 | 0.00 | 0.00 | 0.00 | 31 | 1010.6 |
| 20260507001554 | 77 | 246 | 12.0 | 19.0 | 0.00 | 0.00 | 0.00 | 30 | 1010.4 |
| 20260507000043 | 78 | 265 | 7.0 | 21.0 | 0.00 | 0.00 | 0.00 | 31 | 1010.3 |
| 20260506234519 | 79 | 304 | 11.0 | 18.0 | 0.00 | 0.00 | 0.00 | 29 | 1010.1 |
| 20260506233019 | 80 | 274 | 12.0 | 22.0 | 0.00 | 0.00 | 0.00 | 28 | 1010.0 |
| 20260506231600 | 81 | 294 | 11.0 | 19.0 | 0.00 | 0.00 | 0.00 | 29 | 1009.9 |
| 20260506230105 | 82 | 294 | 14.0 | 21.0 | 0.00 | 0.00 | 0.00 | 28 | 1009.8 |
| 20260506224544 | 83 | 287 | 14.0 | 22.0 | 0.00 | 0.00 | 0.00 | 29 | 1009.8 |
| 20260506223044 | 84 | 292 | 14.0 | 21.0 | 0.00 | 0.00 | 0.00 | 27 | 1009.8 |
| 20260506221533 | 85 | 285 | 10.0 | 24.0 | 0.00 | 0.00 | 0.00 | 27 | 1009.8 |
| 20260506220031 | 85 | 323 | 13.0 | 19.0 | 0.00 | 0.00 | 0.00 | 26 | 1009.7 |
| 20260506214528 | 85 | 307 | 5.0 | 17.0 | 0.00 | 0.00 | 0.00 | 24 | 1009.7 |
| 20260506213032 | 85 | 299 | 7.0 | 21.0 | 0.00 | 0.00 | 0.00 | 21 | 1009.8 |
| 20260506211537 | 84 | 319 | 14.0 | 24.0 | 0.00 | 0.00 | 0.00 | 22 | 1009.9 |
| 20260506210032 | 84 | 322 | 1.0 | 13.0 | 0.00 | 0.00 | 0.00 | 23 | 1010.0 |
| 20260506204523 | 85 | 252 | 12.0 | 16.0 | 0.00 | 0.00 | 0.00 | 25 | 1009.9 |
| 20260506203021 | 85 | 288 | 5.0 | 16.0 | 0.00 | 0.00 | 0.00 | 28 | 1010.0 |
| 20260506201506 | 84 | 298 | 5.0 | 13.0 | 0.00 | 0.00 | 0.00 | 26 | 1010.1 |
| 20260506200100 | 84 | 44 | 0.0 | 0.0 | 0.00 | 0.00 | 0.00 | 26 | 1010.2 |
| 20260506194543 | 83 | 251 | 3.0 | 14.0 | 0.00 | 0.00 | 0.00 | 27 | 1010.2 |
| 20260506193046 | 83 | 190 | 1.0 | 8.0 | 0.00 | 0.00 | 0.00 | 28 | 1010.4 |
| 20260506191518 | 82 | 263 | 2.0 | 12.0 | 0.00 | 0.00 | 0.00 | 28 | 1010.6 |
| 20260506190017 | 82 | 259 | 2.0 | 12.0 | 0.00 | 0.00 | 0.00 | 30 | 1010.6 |
| 20260506184600 | 81 | 253 | 8.0 | 16.0 | 0.00 | 0.00 | 0.00 | 28 | 1010.8 |
| 20260506183103 | 80 | 248 | 3.0 | 17.0 | 0.00 | 0.00 | 0.00 | 31 | 1010.9 |
| 20260506181542 | 80 | 250 | 3.0 | 11.0 | 0.00 | 0.00 | 0.00 | 31 | 1010.9 |
| 20260506180030 | 79 | 213 | 0.0 | 7.0 | 0.00 | 0.00 | 0.00 | 32 | 1011.1 |
| 20260506174512 | 78 | 244 | 1.0 | 7.0 | 0.00 | 0.00 | 0.00 | 35 | 1011.0 |
| 20260506173009 | 77 | 251 | 7.0 | 11.0 | 0.00 | 0.00 | 0.00 | 35 | 1011.2 |
| 20260506171549 | 77 | 242 | 1.0 | 11.0 | 0.00 | 0.00 | 0.00 | 36 | 1011.2 |
| 20260506170103 | 76 | 252 | 6.0 | 13.0 | 0.00 | 0.00 | 0.00 | 37 | 1011.3 |
| 20260506164526 | 75 | 273 | 8.0 | 12.0 | 0.00 | 0.00 | 0.00 | 38 | 1011.4 |
| 20260506163029 | 75 | 323 | 7.0 | 16.0 | 0.00 | 0.00 | 0.00 | 38 | 1011.5 |
| 20260506161504 | 73 | 308 | 8.0 | 18.0 | 0.00 | 0.00 | 0.00 | 39 | 1011.6 |
| 20260506160001 | 73 | 313 | 11.0 | 21.0 | 0.00 | 0.00 | 0.00 | 40 | 1011.8 |
| 20260506154600 | 72 | 305 | 12.0 | 17.0 | 0.00 | 0.00 | 0.00 | 41 | 1011.8 |
| 20260506153036 | 70 | 254 | 0.0 | 0.0 | 0.00 | 0.00 | 0.00 | 45 | 1011.8 |
| 20260506151518 | 69 | 263 | 1.0 | 13.0 | 0.00 | 0.00 | 0.00 | 47 | 1012.0 |
| 20260506150016 | 68 | 309 | 7.0 | 14.0 | 0.00 | 0.00 | 0.00 | 47 | 1011.9 |
| 20260506144558 | 67 | 289 | 1.0 | 12.0 | 0.00 | 0.00 | 0.00 | 49 | 1011.9 |
| 20260506143050 | 66 | 249 | 0.0 | 0.0 | 0.00 | 0.00 | 0.00 | 50 | 1011.9 |
| 20260506141529 | 62 | 194 | 0.0 | 0.0 | 0.00 | 0.00 | 0.00 | 55 | 1011.9 |
| 20260506140025 | 60 | 153 | 0.0 | 0.0 | 0.00 | 0.00 | 0.00 | 58 | 1011.9 |
| 20260506134503 | 58 | 151 | 0.0 | 0.0 | 0.00 | 0.00 | 0.00 | 61 | 1011.8 |
| 20260506133001 | 55 | 360 | 0.0 | 0.0 | 0.00 | 0.00 | 0.00 | 64 | 1011.6 |
| 20260506131548 | 54 | 360 | 0.0 | 0.0 | 0.00 | 0.00 | 0.00 | 65 | 1011.5 |
| 20260506130047 | 54 | 150 | 0.0 | 0.0 | 0.00 | 0.00 | 0.00 | 64 | 1011.3 |
| 20260506124546 | 55 | 151 | 0.0 | 0.0 | 0.00 | 0.00 | 0.00 | 62 | 1011.2 |
| 20260506123045 | 56 | 151 | 0.0 | 0.0 | 0.00 | 0.00 | 0.00 | 62 | 1011.1 |
| 20260506121544 | 55 | 150 | 0.0 | 0.0 | 0.00 | 0.00 | 0.00 | 62 | 1011.1 |
| 20260506120044 | 55 | 150 | 0.0 | 0.0 | 0.00 | 0.00 | 0.00 | 63 | 1010.9 |
| 20260506114547 | 54 | 150 | 0.0 | 0.0 | 0.00 | 0.00 | 0.00 | 64 | 1010.8 |
| 20260506113038 | 56 | 113 | 0.0 | 0.0 | 0.00 | 0.00 | 0.00 | 61 | 1010.7 |
| 20260506111519 | 57 | 113 | 0.0 | 0.0 | 0.00 | 0.00 | 0.00 | 59 | 1010.7 |
| 20260506110018 | 56 | 143 | 0.0 | 0.0 | 0.00 | 0.00 | 0.00 | 61 | 1010.6 |
| 20260506104635 | 57 | 142 | 0.0 | 0.0 | 0.00 | 0.00 | 0.00 | 60 | 1010.4 |
| 20260506103100 | 57 | 142 | 0.0 | 0.0 | 0.00 | 0.00 | 0.00 | 61 | 1010.4 |
| 20260506101541 | 58 | 148 | 0.0 | 0.0 | 0.00 | 0.00 | 0.00 | 60 | 1010.3 |
| 20260506100042 | 58 | 148 | 0.0 | 0.0 | 0.00 | 0.00 | 0.00 | 60 | 1010.2 |
| 20260506094518 | 57 | 148 | 0.0 | 0.0 | 0.00 | 0.00 | 0.00 | 62 | 1010.2 |
| 20260506093015 | 57 | 148 | 0.0 | 0.0 | 0.00 | 0.00 | 0.00 | 62 | 1010.2 |
| 20260506091502 | 58 | 148 | 0.0 | 0.0 | 0.00 | 0.00 | 0.00 | 62 | 1010.2 |
| 20260506090100 | 58 | 148 | 0.0 | 0.0 | 0.00 | 0.00 | 0.00 | 61 | 1010.2 |
| 20260506084559 | 57 | 148 | 0.0 | 0.0 | 0.00 | 0.00 | 0.00 | 63 | 1010.1 |
| 20260506083057 | 57 | 147 | 0.0 | 0.0 | 0.00 | 0.00 | 0.00 | 63 | 1010.1 |
| 20260506081559 | 60 | 117 | 0.0 | 0.0 | 0.00 | 0.00 | 0.00 | 57 | 1009.9 |
| 20260506073049 | 61 | 117 | 0.0 | 0.0 | 0.00 | 0.00 | 0.00 | 55 | 1009.8 |
| 20260506071527 | 62 | 70 | 0.0 | 0.0 | 0.00 | 0.00 | 0.00 | 54 | 1009.8 |
| 20260506061544 | 65 | 23 | 0.0 | 0.0 | 0.00 | 0.00 | 0.00 | 51 | 1009.4 |